SCP
0 0 0 0 0 0 0 0 0 0 0 0 0 0 0 0 0 0 0 0 0 0 0 0 0 0 0 0 0 0 0 0 0 0 0 0 0 0 0 0 0 0 -0 -0
0 0 0 0 0 0 0 0 0 0 0 0 0 0 0 0 0 0 0 0 0 0 0 0 0 0 0 0 0 0 0 0 0 0 0 0 0 0 0 0 0 0 0 0
0 0 0 0 0 0 0 0 0 0 0 0 0 0 0 0 0 0 0 0 0 0 0 0 0 0 0 0 0 0 0 0 0 0 0 0 0 0 0 0 0 0 0 0
0 0 0 0 0 0 0 0 0 0 0 0 0 0 0 0 0 0 0 0 0 0 0 0 0 0 0 0 0 0 0 0 0 0 0 0 0 0 0 0 0 0 0 0
0 0 0 0 0 0 0 0 0 0 0 0 0 0 0 0 0 0 0 0 0 0 0 0 0 0 0 0 0 0 0 0 0 0 0 0 0 0 0 0 0 0 0 0
0 0 0 0 0 0 0 0 0 0 0 0 0 0 0 0 0 0 0 0 0 0 0 0 0 0 0 0 0 0 0 0 0 0 0 0 0 0 0 0 0 0 0 0
0 0 0 0 0 0 0 0 0 0 0 0 0 0 0 0 0 0 0 0 0 0 0 0 0 0 0 0 0 0 0 0 0 0 0 0 0 0 0 0 0 0 0 0
0 0 0 0 0 0 0 0 0 0 0 0 0 0 0 0 0 0 0 0 0 0 0 0 0 0 0 0 0 0 0 0 0 0 0 0 0 0 0 0 0 0 0 0
0 0 0 0 0 0 0 0 0 0 0 0 0 0 0 0 0 0 0 0 0 0 0 0 0 0 0 0 0 0 0 0 0 0 0 0 0 0 0 0 0 0 0 0
0 0 0 0 0 0 0 0 0 0 0 0 0 0 0 0 0 0 0 0 0 0 0 0 0 0 0 0 0 0 0 0 0 0 0 0 0 0 0 0 0 0 0 0
0 0 0 0 0 0 0 0 0 0 0 0 0 0 0 0 0 0 0 0 0 0 0 0 0 0 0 0 0 0 0 0 0 0 0 0 0 0 0 0 0 0 0 0
0 0 0 0 0 0 0 0 0 0 0 0 0 0 0 0 0 0 0 0 0 0 0 0 0 0 0 0 0 0 0 0 0 0 0 0 0 0 0 0 0 0 0 0
0 0 0 0 0 0 0 0 0 0 0 0 0 0 0 0 0 0 0 0 0 0 0 0 0 0 0 0 0 0 0 0 0 0 0 0 0 0 0 0 0 0 0 0
0 0 0 0 0 0 0 0 0 0 0 0 0 0 0 0 0 0 0 0 0 0 0 0 0 0 0 0 0 0 0 0 0 0 0 0 0 0 0 0 0 0 0 0
0 0 0 0 0 0 0 0 0 0 0 0 0 0 0 0 0 0 0 0 0 0 0 0 0 0 0 0 0 0 0 0 0 0 0 0 0 0 0 0 0 0 0 0
0 0 0 0 0 0 0 0 0 0 0 0 0 0 0 0 0 0 0 0 0 0 0 0 0 0 0 0 0 0 0 0 0 0 0 0 0 0 0 0 0 0 0 0
0 0 0 0 0 0 0 0 0 0 0 0 0 0 0 0 0 0 0 0 0 0 0 0 0 0 0 0 0 0 0 0 0 0 0 0 0 0 0 0 0 0 0 0
0 0 0 0 0 0 0 0 0 0 0 0 0 0 0 0 0 0 0 0 0 0 0 0 0 0 0 0 0 0 0 0 0 0 0 0 0 0 0 0 0 0 0 0
0 0 0 0 0 0 0 0 0 0 0 0 0 0 0 0 0 0 0 0 0 0 0 0 0 0 0 0 0 0 0 0 0 0 0 0 0 0 0 0 -0 0 0 0
0 0 0 0 0 0 0 0 0 0 0 0 0 0 0 0 0 0 0 0 0 0 0 0 0 0 0 0 0 0 0 0 0 0 0 0 0 0 0 0 0 0 0 0
0 0 0 0 0 0 0 0 0 0 0 0 0 0 0 0 0 0 0 0 0 0 0 0 0 0 0 0 0 0 0 0 0 0 0 0 0 0 0 0 0 0 0 0
0 0 0 0 0 0 0 0 0 0 0 0 -0 -0 -0 -0 0 0 0 0 0 0 0 -0 -0 0 0 0 0 0 0 0 0 0 0 0 0 0 0 0 0 0 0 0
0 0 0 0 0 0 -0 -0 0 0 0 0 0 -0 -0 0 0 0 0 0 -0 -0 -0 -0 -0 0 0 0 0 0 0 0 0 0 0 0 0 0 0 0 0 0 0 0
0 0 0 0 0 0 -0 -0 0 0 0 0 0 0 0 0 0 0 0 0 0 0 0 0 0 0 0 0 0 0 0 0 0 0 0 0 0 0 0 0 0 0 0 0
0 0 0 0 0 0 0 0 0 0 0 0 0 0 0 0 0 0 0 0 0 0 0 0 0 0 0 0 0 0 0 0 0 0 0 0 0 0 0 0 0 0 0 0
0 0 0 0 0 0 0 0 0 0 -0 -0 -0 -0 -0 -0 0 0 0 0 0 0 0 0 0 0 0 0 0 0 0 0 0 0 0 0 0 0 0 0 0 0 0 0
0 0 0 0 0 0 0 0 0 -0 -0 -0 -0 -0 -0 0 0 0 0 0 0 0 0 0 0 0 0 0 0 0 0 0 0 0 0 0 0 0 0 0 0 0 0 0
Wind_Speed
5 4 4 4 5 7 5 8 9 8 8 8 6 4 3 2 2 4 4 4 5 6 5 4 4 4 4 4 4 5 6 6 6 6 6 6 6 6 6 6 6 6 6 6
1 1 3 2 3 5 4 5 4 3 6 4 1 1 1 2 2 3 4 4 5 5 5 5 5 5 4 4 4 5 6 6 6 6 7 7 7 7 7 7 6 7 7 7
2 2 2 3 4 5 4 3 6 8 7 3 2 2 1 1 2 2 2 3 4 5 5 5 5 5 6 5 4 5 5 6 6 7 7 7 8 9 9 8 8 8 7 8
2 2 5 7 2 4 5 1 1 2 2 3 4 3 2 2 1 1 1 1 2 2 3 3 4 4 4 5 5 6 6 6 7 8 8 8 9 9 8 8 8 8 8 9
4 4 3 3 1 3 5 0 1 4 5 4 4 3 3 3 2 1 1 1 1 1 2 3 4 5 5 5 5 6 6 6 7 8 10 10 10 9 8 9 9 9 8 9
4 4 7 7 2 1 5 1 2 4 6 5 4 2 2 1 2 2 2 2 1 2 2 3 3 5 6 6 6 6 6 7 7 9 10 10 10 10 9 9 10 10 10 9
4 4 6 3 3 1 5 7 4 5 5 5 4 3 2 2 2 2 2 3 2 3 2 2 3 6 6 6 6 6 7 8 9 9 11 11 11 9 10 10 11 11 11 9
4 4 6 2 1 4 5 1 3 3 3 3 3 2 2 2 2 3 3 3 3 3 3 2 4 6 7 6 6 8 9 10 10 10 10 11 12 11 10 11 12 10 10 9
6 6 3 1 1 1 0 2 2 2 2 3 2 2 1 1 2 2 2 2 2 3 4 4 4 5 7 6 8 10 11 11 11 11 10 10 11 12 10 8 8 8 8 8
2 3 1 1 1 2 2 2 2 1 1 2 2 2 1 1 1 1 2 2 2 4 4 4 5 6 7 7 9 11 12 12 11 12 12 10 8 8 9 8 8 8 8 7
2 2 0 1 0 1 2 3 3 2 1 1 3 2 2 1 1 2 2 2 3 4 5 6 6 7 8 8 10 12 12 12 12 11 12 11 10 8 8 6 7 9 7 7
6 5 5 3 2 1 2 2 1 2 1 1 2 3 3 3 2 3 3 4 5 6 7 7 8 9 8 8 10 13 12 11 10 10 10 10 11 12 16 13 15 14 12 9
3 2 3 3 3 2 2 2 1 2 2 2 3 4 5 4 4 5 5 5 7 8 8 9 10 10 9 9 11 13 13 11 10 10 10 10 10 11 11 12 16 15 13 12
4 5 4 3 3 3 4 4 5 5 4 4 5 5 6 6 6 7 7 7 8 9 10 10 12 11 9 10 12 13 13 14 12 9 9 9 9 9 9 9 9 7 8 11
2 3 4 5 5 5 5 6 7 6 6 6 6 6 7 8 9 8 8 8 9 10 10 11 12 10 9 10 12 13 11 9 9 9 8 8 8 8 8 9 8 7 6 7
5 6 7 7 7 6 6 7 7 7 6 7 7 8 9 9 10 9 8 8 10 10 9 10 11 9 9 10 12 10 10 16 13 9 9 8 8 8 8 8 7 7 6 5
9 7 7 7 7 6 6 6 7 7 7 8 8 9 10 11 11 10 10 9 10 10 9 10 10 9 9 9 10 9 9 11 15 10 8 7 7 7 7 7 7 6 5 4
5 6 7 9 9 8 8 8 8 9 9 9 10 10 10 10 10 10 10 10 11 10 8 8 9 9 9 9 8 8 8 8 7 8 7 6 6 6 7 7 7 7 5 4
7 7 8 9 9 8 9 9 9 9 9 10 10 10 9 9 9 9 9 10 10 9 6 7 11 10 9 9 10 7 8 8 7 7 6 8 7 6 6 6 6 6 5 4
8 10 10 10 9 9 10 10 10 10 9 9 10 10 10 9 9 9 9 7 5 4 5 7 8 7 7 8 10 6 7 8 8 7 6 6 7 6 6 6 6 5 4 4
10 11 12 11 10 9 9 10 10 10 9 9 9 10 9 8 7 7 8 7 4 5 6 8 6 5 5 7 9 6 7 7 7 6 6 6 6 6 6 5 5 5 4 4
10 11 11 11 11 9 8 8 9 10 9 9 9 9 9 8 8 7 5 4 4 6 5 4 4 6 8 8 6 6 6 6 6 5 6 6 6 6 5 5 5 5 4 4
9 10 10 10 10 10 9 8 8 9 9 8 9 8 8 6 5 6 4 2 3 6 4 3 6 10 11 6 5 6 6 6 6 6 6 6 6 6 6 6 5 5 5 4
10 10 10 10 10 10 9 7 7 7 7 7 6 7 7 6 4 2 3 6 6 6 4 5 9 11 9 5 5 5 5 5 5 5 5 5 5 5 5 5 5 5 5 6
10 10 10 10 9 7 7 8 8 8 7 6 6 5 4 4 4 4 4 5 7 7 4 6 9 9 6 4 5 5 4 5 5 5 5 5 5 5 5 5 5 5 5 5
8 7 6 6 6 6 6 6 5 5 5 5 4 3 4 4 5 5 4 5 6 6 5 4 4 5 4 4 4 5 4 5 5 5 6 5 6 6 5 6 7 6 6 6
9 7 6 6 6 5 5 5 6 5 4 5 4 3 4 4 4 5 5 4 4 4 3 3 3 3 4 4 4 4 4 4 4 5 5 5 5 6 6 7 6 6 6 6
Wind_Direction
232 230 184 194 185 171 167 171 172 212 214 237 238 233 224 194 152 145 149 154 163 164 163 162 165 164 161 164 162 160 158 162 166 160 151 144 140 134 129 128 130 128 123 116
314 295 183 185 193 175 171 166 178 173 233 252 257 144 157 157 151 158 154 161 168 163 166 171 171 170 164 166 164 157 160 162 154 151 147 142 137 129 120 114 112 110 107 105
242 310 90 223 216 182 174 183 167 186 215 168 130 121 156 173 162 168 151 145 164 172 177 182 179 173 171 165 156 152 151 148 149 150 143 137 130 120 117 113 106 101 101 101
156 127 205 244 275 155 129 104 199 167 137 137 130 105 65 58 108 87 95 120 153 169 174 175 169 167 160 149 154 155 150 145 140 136 130 123 119 117 114 110 108 104 100 99
135 173 238 275 232 158 136 202 258 142 128 115 120 80 27 28 64 77 82 93 153 159 161 159 163 159 150 148 150 150 148 144 140 137 131 127 123 120 115 111 105 100 98 100
134 161 212 232 274 193 107 241 223 153 149 148 127 108 263 13 53 55 55 62 75 96 109 143 156 146 143 148 147 153 149 141 134 130 127 126 122 118 111 108 106 101 93 91
154 196 247 256 299 97 163 225 190 158 155 151 160 184 181 97 66 57 60 59 74 93 104 130 141 142 144 144 150 140 125 121 119 118 119 119 115 114 113 109 104 100 95 87
146 178 239 306 47 181 210 191 123 143 144 140 141 121 97 77 60 47 51 52 72 87 84 92 126 138 140 144 136 123 119 116 114 114 117 119 117 112 109 109 106 103 99 89
186 206 242 324 220 321 111 114 113 126 122 127 135 151 126 85 58 42 54 59 70 88 86 79 95 125 131 127 121 119 116 112 110 106 105 112 116 116 109 104 105 107 105 100
227 250 251 352 20 24 47 83 84 105 137 150 174 181 150 116 85 63 58 75 90 97 94 87 89 97 106 112 115 115 113 110 109 107 102 98 98 104 109 111 111 108 107 107
238 237 143 271 204 72 62 70 70 56 64 166 157 165 162 145 121 99 84 84 98 105 106 98 95 96 101 109 113 110 107 107 106 105 107 98 85 78 91 88 113 120 116 117
214 209 182 200 171 135 98 73 78 87 51 62 135 141 128 121 110 99 94 95 101 99 99 99 100 97 98 106 112 111 107 105 105 107 107 106 103 85 65 80 86 89 98 105
201 139 128 129 129 112 114 113 100 96 117 110 103 119 120 112 101 100 97 96 101 101 99 97 95 92 92 98 103 105 109 108 106 108 110 111 110 109 101 77 70 78 89 99
145 123 130 150 140 117 119 113 99 87 87 100 107 108 110 107 101 97 95 93 97 99 99 98 94 91 91 98 101 102 104 107 109 108 109 110 112 112 114 115 106 84 75 93
141 140 142 127 117 113 115 116 108 101 99 97 100 106 110 110 104 97 94 95 96 95 96 99 98 97 98 103 105 105 106 109 108 107 106 107 109 109 111 112 113 113 106 91
119 109 118 124 126 123 122 121 118 116 113 109 105 105 107 105 101 98 95 97 101 100 99 101 100 103 106 108 106 103 106 116 115 113 113 112 112 114 115 118 120 121 122 125
138 146 149 145 142 136 130 124 123 123 118 114 113 111 110 106 101 96 91 89 93 94 95 99 101 102 103 108 111 113 114 119 119 115 118 121 123 125 127 128 128 127 129 140
149 151 149 147 144 138 127 119 119 120 120 118 114 110 108 108 106 104 102 99 94 86 82 94 103 104 103 105 108 112 115 119 124 126 125 124 126 129 131 133 136 133 129 124
134 135 132 132 132 129 125 121 119 115 114 115 113 109 104 102 103 104 102 101 101 98 89 94 106 102 104 112 113 112 119 122 122 121 123 126 126 130 135 139 141 141 140 138
128 128 127 124 122 123 124 123 120 117 116 116 111 107 103 103 105 104 98 90 87 108 117 113 110 109 111 120 120 120 124 128 129 129 129 134 138 141 144 146 146 147 150 155
131 131 130 127 123 123 126 127 126 123 120 118 116 115 113 109 107 107 106 99 81 99 109 113 111 115 116 122 121 123 127 130 133 137 140 142 144 146 149 151 155 161 166 171
134 132 129 127 124 123 123 124 125 124 122 120 117 117 115 112 107 96 86 106 123 120 112 112 118 128 132 128 124 128 130 133 135 139 143 149 152 157 161 164 169 175 180 185
128 127 126 125 124 121 118 119 124 126 128 129 129 129 126 122 122 123 118 114 119 122 115 122 137 138 134 126 128 133 137 141 146 152 157 161 165 167 172 178 184 187 190 197
119 120 119 118 117 118 119 121 119 119 120 122 127 131 129 121 103 92 117 134 135 127 120 136 141 139 131 127 133 138 144 149 153 157 160 162 168 173 178 185 192 197 202 208
115 116 119 124 125 124 121 118 111 109 110 108 112 115 117 125 134 139 131 134 138 131 123 135 138 136 131 133 140 146 153 161 163 164 168 171 178 183 190 195 200 204 209 216
106 108 109 111 115 119 121 119 116 117 117 116 111 112 111 108 117 123 126 134 137 134 131 128 133 135 136 144 150 156 161 165 169 175 182 184 189 193 199 206 210 213 218 224
95 96 96 92 90 99 109 115 120 126 131 132 125 125 127 127 127 130 133 136 138 139 140 140 142 146 152 159 163 167 172 177 183 187 191 194 198 204 209 212 216 219 224 229